User: anonymous   Login
Location: Monroe
(41.9160°N, 83.3980°W)
Time: 10:37:26
(UTC-04:00)
Language:

ISS - Orbit

View from above orbital plane
View from above orbital plane
View from above satellite
View from above satellite

Ground track
Ground track

The orbit data is extracted from the following two-line orbital elements,

1 25544U 98067A   15241.09495030  .00014462  00000-0  21395-3 0  9993
2 25544 051.6452 079.9932 0001529 095.8817 050.4203 15.55552981959383
Epoch (UTC): 29 August 2015 02:16:43
Eccentricity: 0.0001529
inclination: 51.6452°
perigee height: 399 km
apogee height: 401 km
right ascension of ascending node: 79.9932°
argument of perigee: 95.8817°
revolutions per day: 15.55552981
mean anomaly at epoch: 50.4203°
orbit number at epoch: 95938

The dashed part of the orbit path shows where the satellite is in the earth's shadow,  

DLR